User: anonymous   Login
Location: Hamilton
(37.7830°S, 175.2830°E)
Time: 01:40:55
(UTC+12:00)
Language:

Lacrosse 5 - Orbit

View from above orbital plane
View from above orbital plane
View from above satellite
View from above satellite

Ground track
Ground track

The orbit data is extracted from the following two-line orbital elements,

1 28646U 05016A   19137.06823478 0.00000000  00000-0  00000-0 0    00
2 28646  57.0131  38.6514 0002860 120.5257 239.4742 14.51896653    09
Epoch (UTC): 17 May 2019 01:38:15
Eccentricity: 0.0002860
inclination: 57.0131°
perigee height: 717 km
apogee height: 721 km
right ascension of ascending node: 38.6514°
argument of perigee: 120.5257°
revolutions per day: 14.51896653
mean anomaly at epoch: 239.4742°
orbit number at epoch: 0

The dashed part of the orbit path shows where the satellite is in the earth's shadow,  

DLR